[Date Prev][Date Next][Thread Prev][Thread Next] - [Date Index][Thread Index][Author Index]
2 Line ISS Keps 3-10
- Subject: [sarex] 2 Line ISS Keps 3-10
- From: "Dave Larsen PhD" <doc@xxxxxxxxxxx>
- Date: Wed, 10 Mar 2004 01:38:08 -0800
ISS
1 25544U 98067A 04070.20258850 .00012530 00000-0 12213-3 0 3459
2 25544 51.6284 109.8657 0010876 258.3223 228.1949 15.66600024302786
----
Via the sarex mailing list at AMSAT.ORG courtesy of AMSAT-NA.
To unsubscribe, send "unsubscribe sarex" to Majordomo@amsat.org
AMSAT Home